| time (UTC) | temp F | wind direction | speed MPH | gust MPH | rain 1hr in | rain 24hr in | rain mn in | humidity % | barometer mb |
| 20260902123223 | 74 | 268 | 6.0 | 6.0 | 0.00 | 0.11 | 0.00 | 55 | 1019.9 |
| 20260902122723 | 73 | 269 | 3.0 | 9.0 | 0.00 | 0.11 | 0.00 | 54 | 1020.0 |
| 20260902122223 | 74 | 262 | 5.0 | 6.0 | 0.00 | 0.11 | 0.00 | 53 | 1020.0 |
| 20260902121723 | 74 | 350 | 2.0 | 6.0 | 0.00 | 0.11 | 0.00 | 52 | 1020.0 |
| 20260902121123 | 73 | 287 | 1.0 | 6.0 | 0.00 | 0.11 | 0.00 | 54 | 1020.2 |
| 20260902120623 | 72 | 233 | 5.0 | 5.0 | 0.00 | 0.11 | 0.00 | 56 | 1020.3 |
| 20260902120023 | 72 | 239 | 5.0 | 5.0 | 0.00 | 0.11 | 0.00 | 55 | 1020.3 |
| 20260902115522 | 71 | 274 | 2.0 | 4.0 | 0.00 | 0.11 | 0.00 | 56 | 1020.4 |
| 20260902114923 | 72 | 296 | 2.0 | 4.0 | 0.00 | 0.11 | 0.00 | 55 | 1020.4 |
| 20260902114323 | 72 | 344 | 1.0 | 3.0 | 0.00 | 0.11 | 0.00 | 55 | 1020.7 |
| 20260902113822 | 72 | 302 | 3.0 | 5.0 | 0.00 | 0.11 | 0.00 | 56 | 1020.7 |
| 20260902113322 | 72 | 289 | 1.0 | 3.0 | 0.00 | 0.11 | 0.00 | 58 | 1020.4 |
| 20260902112822 | 71 | 187 | 1.0 | 3.0 | 0.00 | 0.11 | 0.00 | 57 | 1020.4 |
| 20260902112322 | 71 | 356 | 2.0 | 4.0 | 0.00 | 0.11 | 0.00 | 56 | 1020.5 |
| 20260902111822 | 71 | 278 | 5.0 | 6.0 | 0.00 | 0.11 | 0.00 | 56 | 1020.6 |
| 20260902111322 | 72 | 268 | 5.0 | 8.0 | 0.00 | 0.11 | 0.00 | 56 | 1020.4 |
| 20260902110822 | 72 | 275 | 5.0 | 5.0 | 0.00 | 0.11 | 0.00 | 54 | 1020.4 |
| 20260902110322 | 71 | 285 | 2.0 | 2.0 | 0.00 | 0.11 | 0.00 | 57 | 1020.8 |
| 20260902105724 | 71 | 306 | 4.0 | 5.0 | 0.00 | 0.11 | 0.00 | 58 | 1020.7 |
| 20260902105125 | 71 | 284 | 3.0 | 5.0 | 0.00 | 0.11 | 0.00 | 57 | 1021.0 |
| 20260902104523 | 70 | 256 | 4.0 | 5.0 | 0.00 | 0.11 | 0.00 | 57 | 1021.0 |
| 20260902103926 | 71 | 253 | 5.0 | 6.0 | 0.00 | 0.11 | 0.00 | 56 | 1020.8 |
| 20260902103323 | 71 | 274 | 3.0 | 6.0 | 0.00 | 0.11 | 0.00 | 56 | 1021.0 |
| 20260902102823 | 71 | 282 | 5.0 | 10.0 | 0.00 | 0.11 | 0.00 | 55 | 1021.1 |
| 20260902102223 | 70 | 299 | 2.0 | 4.0 | 0.00 | 0.11 | 0.00 | 59 | 1020.9 |
| 20260902101722 | 69 | 273 | 3.0 | 5.0 | 0.00 | 0.11 | 0.00 | 60 | 1021.1 |
| 20260902101125 | 69 | 266 | 2.0 | 7.0 | 0.00 | 0.11 | 0.00 | 61 | 1021.0 |
| 20260902100525 | 69 | 261 | 2.0 | 4.0 | 0.00 | 0.11 | 0.00 | 65 | 1021.2 |
| 20260902100022 | 69 | 291 | 2.0 | 4.0 | 0.00 | 0.11 | 0.00 | 65 | 1021.3 |
| 20260902095422 | 68 | 268 | 5.0 | 8.0 | 0.00 | 0.11 | 0.00 | 64 | 1021.2 |
| 20260902094922 | 68 | 259 | 2.0 | 5.0 | 0.00 | 0.11 | 0.00 | 64 | 1021.4 |
| 20260902094422 | 69 | 342 | 3.0 | 5.0 | 0.00 | 0.11 | 0.00 | 64 | 1021.1 |
| 20260902093922 | 69 | 282 | 2.0 | 5.0 | 0.00 | 0.11 | 0.00 | 65 | 1021.2 |
| 20260902093423 | 68 | 290 | 5.0 | 6.0 | 0.00 | 0.11 | 0.00 | 67 | 1021.4 |
| 20260902092922 | 67 | 271 | 3.0 | 6.0 | 0.00 | 0.11 | 0.00 | 66 | 1021.3 |
| 20260902092323 | 68 | 273 | 3.0 | 6.0 | 0.00 | 0.11 | 0.00 | 66 | 1021.2 |
| 20260902091822 | 68 | 266 | 3.0 | 8.0 | 0.00 | 0.11 | 0.00 | 68 | 1021.3 |
| 20260902091322 | 68 | 230 | 3.0 | 9.0 | 0.00 | 0.11 | 0.00 | 68 | 1021.3 |
| 20260902090822 | 68 | 271 | 4.0 | 6.0 | 0.00 | 0.11 | 0.00 | 70 | 1021.4 |
| 20260902090322 | 68 | 305 | 3.0 | 9.0 | 0.00 | 0.11 | 0.00 | 69 | 1021.5 |
| 20260902085822 | 68 | 258 | 5.0 | 10.0 | 0.00 | 0.11 | 0.00 | 70 | 1021.5 |
| 20260902085322 | 67 | 233 | 2.0 | 5.0 | 0.00 | 0.11 | 0.00 | 73 | 1021.3 |
| 20260902084725 | 67 | 305 | 0.0 | 4.0 | 0.00 | 0.11 | 0.00 | 75 | 1021.4 |
| 20260902084125 | 66 | 260 | 2.0 | 6.0 | 0.00 | 0.11 | 0.00 | 76 | 1021.1 |
| 20260902083622 | 66 | 253 | 3.0 | 4.0 | 0.00 | 0.11 | 0.00 | 79 | 1021.5 |
| 20260902083022 | 65 | 321 | 2.0 | 4.0 | 0.00 | 0.11 | 0.00 | 80 | 1021.1 |
| 20260902082422 | 65 | 318 | 2.0 | 6.0 | 0.00 | 0.11 | 0.00 | 81 | 1021.5 |
| 20260902081922 | 64 | 264 | 2.0 | 5.0 | 0.00 | 0.11 | 0.00 | 81 | 1021.3 |
| 20260902081325 | 64 | 249 | 2.0 | 5.0 | 0.00 | 0.11 | 0.00 | 83 | 1021.5 |
| 20260902080722 | 64 | 255 | 2.0 | 5.0 | 0.00 | 0.11 | 0.00 | 83 | 1021.5 |
| 20260902080122 | 63 | 322 | 2.0 | 4.0 | 0.00 | 0.11 | 0.00 | 83 | 1021.3 |
| 20260902075522 | 63 | 323 | 0.0 | 4.0 | 0.00 | 0.11 | 0.00 | 83 | 1021.5 |
| 20260902074922 | 62 | 308 | 2.0 | 5.0 | 0.00 | 0.11 | 0.00 | 84 | 1021.5 |
| 20260902074322 | 62 | 263 | 3.0 | 4.0 | 0.00 | 0.11 | 0.00 | 86 | 1021.5 |
| 20260902073722 | 61 | 285 | 2.0 | 5.0 | 0.00 | 0.11 | 0.00 | 85 | 1021.4 |
| 20260902073122 | 61 | 286 | 2.0 | 3.0 | 0.00 | 0.11 | 0.00 | 87 | 1021.4 |
| 20260902072525 | 61 | 340 | 2.0 | 3.0 | 0.00 | 0.11 | 0.00 | 87 | 1021.4 |
| 20260902072022 | 60 | 288 | 1.0 | 2.0 | 0.00 | 0.11 | 0.00 | 88 | 1021.3 |
| 20260902071422 | 60 | 285 | 2.0 | 3.0 | 0.00 | 0.11 | 0.00 | 88 | 1021.4 |
| 20260902070825 | 60 | 280 | 2.0 | 3.0 | 0.00 | 0.11 | 0.00 | 89 | 1021.5 |
| 20260902070223 | 60 | 275 | 1.0 | 3.0 | 0.00 | 0.11 | 0.00 | 89 | 1021.5 |
| 20260902065722 | 59 | 172 | 2.0 | 3.0 | 0.00 | 0.11 | 0.00 | 89 | 1021.4 |
| 20260902065122 | 58 | 275 | 2.0 | 3.0 | 0.00 | 0.11 | 0.00 | 89 | 1021.4 |
| 20260902064622 | 58 | 253 | 1.0 | 3.0 | 0.00 | 0.11 | 0.00 | 91 | 1021.3 |
| 20260902064030 | 58 | 285 | 3.0 | 4.0 | 0.00 | 0.11 | 0.00 | 91 | 1021.5 |
| 20260902063522 | 57 | 258 | 3.0 | 4.0 | 0.00 | 0.11 | 0.00 | 91 | 1021.4 |
| 20260902063022 | 57 | 263 | 3.0 | 4.0 | 0.00 | 0.11 | 0.00 | 93 | 1021.5 |
| 20260902062522 | 56 | 247 | 3.0 | 5.0 | 0.00 | 0.11 | 0.00 | 95 | 1021.6 |
| 20260902061928 | 56 | 275 | 2.0 | 4.0 | 0.00 | 0.11 | 0.00 | 96 | 1021.5 |
| 20260902061422 | 55 | 261 | 2.0 | 4.0 | 0.00 | 0.11 | 0.00 | 98 | 1021.5 |
| 20260902060822 | 54 | 268 | 3.0 | 4.0 | 0.00 | 0.11 | 0.00 | 98 | 1021.4 |
| 20260902060225 | 54 | 271 | 3.0 | 4.0 | 0.00 | 0.11 | 0.00 | 98 | 1021.7 |
| 20260902055631 | 53 | 266 | 3.0 | 4.0 | 0.00 | 0.11 | 0.00 | 98 | 1021.4 |
| 20260902055123 | 53 | 285 | 2.0 | 3.0 | 0.00 | 0.11 | 0.00 | 98 | 1021.5 |
| 20260902054622 | 53 | 301 | 3.0 | 5.0 | 0.00 | 0.11 | 0.00 | 98 | 1021.5 |
| 20260902054122 | 53 | 278 | 4.0 | 4.0 | 0.00 | 0.11 | 0.00 | 98 | 1021.4 |
| 20260902053622 | 53 | 271 | 3.0 | 4.0 | 0.00 | 0.11 | 0.00 | 98 | 1021.6 |
| 20260902053123 | 52 | 257 | 3.0 | 4.0 | 0.00 | 0.11 | 0.00 | 98 | 1021.7 |
| 20260902052622 | 52 | 290 | 3.0 | 4.0 | 0.00 | 0.11 | 0.00 | 98 | 1021.7 |
| 20260902052122 | 52 | 303 | 3.0 | 3.0 | 0.00 | 0.11 | 0.00 | 98 | 1021.5 |
| 20260902051622 | 52 | 304 | 3.0 | 3.0 | 0.00 | 0.11 | 0.00 | 98 | 1021.4 |
| 20260902051025 | 52 | 309 | 2.0 | 3.0 | 0.00 | 0.11 | 0.00 | 98 | 1021.5 |
| 20260902050425 | 52 | 321 | 2.0 | 3.0 | 0.00 | 0.11 | 0.00 | 98 | 1021.5 |
| 20260902045925 | 51 | 297 | 1.0 | 2.0 | 0.00 | 0.11 | 0.00 | 98 | 1021.3 |
| 20260902045326 | 51 | 23 | 2.0 | 3.0 | 0.00 | 0.11 | 0.00 | 98 | 1021.4 |
| 20260902044725 | 51 | 355 | 2.0 | 2.0 | 0.00 | 0.11 | 0.00 | 98 | 1021.3 |
| 20260902044223 | 51 | 31 | 3.0 | 3.0 | 0.00 | 0.11 | 0.00 | 98 | 1021.4 |
| 20260902043623 | 51 | 12 | 2.0 | 3.0 | 0.00 | 0.11 | 0.00 | 98 | 1021.4 |
| 20260902043023 | 51 | 332 | 2.0 | 3.0 | 0.00 | 0.11 | 0.00 | 97 | 1021.7 |
| 20260902042523 | 51 | 350 | 2.0 | 3.0 | 0.00 | 0.11 | 0.00 | 97 | 1021.6 |
| 20260902042022 | 51 | 16 | 2.0 | 4.0 | 0.00 | 0.11 | 0.00 | 97 | 1021.7 |
| 20260902041522 | 51 | 21 | 2.0 | 2.0 | 0.00 | 0.11 | 0.00 | 97 | 1021.7 |
| 20260902041022 | 51 | 322 | 2.0 | 3.0 | 0.00 | 0.11 | 0.00 | 97 | 1021.8 |
| 20260902040522 | 51 | 1 | 2.0 | 2.0 | 0.00 | 0.10 | 0.00 | 97 | 1021.7 |
| 20260902035922 | 51 | 320 | 2.0 | 2.0 | 0.00 | 0.10 | 0.00 | 97 | 1021.9 |
| 20260902035421 | 51 | 17 | 2.0 | 2.0 | 0.00 | 0.10 | 0.00 | 97 | 1021.8 |
| 20260902034921 | 52 | 11 | 3.0 | 3.0 | 0.00 | 0.10 | 0.00 | 97 | 1021.6 |
| 20260902034322 | 52 | 322 | 2.0 | 3.0 | 0.00 | 0.10 | 0.00 | 97 | 1021.8 |
| 20260902033822 | 52 | 283 | 2.0 | 3.0 | 0.00 | 0.10 | 0.00 | 97 | 1021.7 |
| 20260902033321 | 53 | 290 | 2.0 | 2.0 | 0.00 | 0.10 | 0.00 | 97 | 1021.6 |
| 20260902032821 | 53 | 297 | 2.0 | 3.0 | 0.00 | 0.10 | 0.00 | 97 | 1021.6 |
| 20260902032321 | 52 | 289 | 2.0 | 3.0 | 0.00 | 0.10 | 0.00 | 97 | 1021.8 |
| 20260902031821 | 53 | 299 | 1.0 | 3.0 | 0.00 | 0.10 | 0.00 | 97 | 1021.3 |
| 20260902031321 | 53 | 314 | 3.0 | 4.0 | 0.00 | 0.10 | 0.00 | 97 | 1021.3 |
| 20260902030821 | 53 | 305 | 2.0 | 3.0 | 0.00 | 0.10 | 0.00 | 97 | 1021.5 |
| 20260902030321 | 53 | 292 | 2.0 | 2.0 | 0.00 | 0.10 | 0.00 | 97 | 1021.2 |
| 20260902025821 | 52 | 306 | 2.0 | 4.0 | 0.00 | 0.10 | 0.00 | 96 | 1021.3 |
| 20260902025321 | 53 | 285 | 2.0 | 3.0 | 0.00 | 0.10 | 0.00 | 96 | 1021.4 |
| 20260902024821 | 53 | 285 | 2.0 | 3.0 | 0.00 | 0.10 | 0.00 | 97 | 1021.1 |
| 20260902024321 | 53 | 312 | 2.0 | 3.0 | 0.00 | 0.10 | 0.00 | 96 | 1021.1 |
| 20260902023821 | 53 | 327 | 2.0 | 4.0 | 0.00 | 0.10 | 0.00 | 97 | 1021.3 |
| 20260902023321 | 54 | 294 | 2.0 | 3.0 | 0.00 | 0.10 | 0.00 | 97 | 1021.1 |
| 20260902022821 | 53 | 249 | 0.0 | 2.0 | 0.00 | 0.10 | 0.00 | 97 | 1021.0 |
| 20260902022221 | 53 | 318 | 2.0 | 3.0 | 0.00 | 0.10 | 0.00 | 96 | 1021.2 |
| 20260902021621 | 54 | 311 | 2.0 | 3.0 | 0.00 | 0.10 | 0.00 | 97 | 1021.3 |
| 20260902021121 | 54 | 306 | 2.0 | 3.0 | 0.00 | 0.10 | 0.00 | 96 | 1021.0 |
| 20260902020522 | 54 | 321 | 2.0 | 2.0 | 0.00 | 0.10 | 0.00 | 96 | 1021.2 |
| 20260902015921 | 54 | 306 | 2.0 | 3.0 | 0.00 | 0.10 | 0.00 | 97 | 1021.1 |
| 20260902015322 | 54 | 317 | 2.0 | 3.0 | 0.00 | 0.10 | 0.00 | 97 | 1021.3 |
| 20260902014822 | 54 | 318 | 2.0 | 3.0 | 0.00 | 0.10 | 0.00 | 96 | 1021.3 |
| 20260902014321 | 54 | 307 | 2.0 | 3.0 | 0.00 | 0.10 | 0.00 | 96 | 1021.3 |
| 20260902013722 | 54 | 311 | 2.0 | 3.0 | 0.00 | 0.10 | 0.00 | 96 | 1021.3 |
| 20260902013221 | 54 | 295 | 2.0 | 3.0 | 0.00 | 0.10 | 0.00 | 96 | 1021.4 |
| 20260902012721 | 54 | 298 | 2.0 | 4.0 | 0.00 | 0.10 | 0.00 | 96 | 1021.5 |
| 20260902012221 | 55 | 315 | 3.0 | 4.0 | 0.00 | 0.10 | 0.00 | 96 | 1021.5 |
| 20260902011721 | 55 | 313 | 2.0 | 3.0 | 0.00 | 0.10 | 0.00 | 96 | 1021.2 |
| 20260902011221 | 55 | 317 | 2.0 | 3.0 | 0.00 | 0.10 | 0.00 | 96 | 1021.4 |
| 20260902010721 | 55 | 302 | 2.0 | 3.0 | 0.00 | 0.10 | 0.00 | 96 | 1021.4 |
| 20260902010221 | 55 | 296 | 2.0 | 3.0 | 0.00 | 0.10 | 0.00 | 96 | 1021.4 |
| 20260902005721 | 55 | 298 | 2.0 | 3.0 | 0.00 | 0.10 | 0.00 | 96 | 1021.3 |
| 20260902005122 | 55 | 281 | 1.0 | 2.0 | 0.00 | 0.10 | 0.00 | 95 | 1021.5 |
| 20260902004525 | 55 | 326 | 2.0 | 3.0 | 0.00 | 0.10 | 0.00 | 95 | 1021.4 |
| 20260902004022 | 55 | 333 | 0.0 | 3.0 | 0.00 | 0.10 | 0.00 | 95 | 1021.3 |
| 20260902003422 | 55 | 318 | 2.0 | 3.0 | 0.00 | 0.10 | 0.00 | 95 | 1021.3 |
| 20260902002822 | 55 | 291 | 2.0 | 3.0 | 0.00 | 0.10 | 0.00 | 95 | 1021.3 |
| 20260902002222 | 56 | 299 | 2.0 | 3.0 | 0.00 | 0.10 | 0.00 | 95 | 1021.3 |
| 20260902001622 | 56 | 293 | 2.0 | 3.0 | 0.00 | 0.10 | 0.00 | 95 | 1021.3 |
| 20260902001122 | 56 | 287 | 2.0 | 3.0 | 0.00 | 0.10 | 0.00 | 95 | 1021.4 |
| 20260902000522 | 56 | 275 | 2.0 | 3.0 | 0.00 | 0.10 | 0.00 | 95 | 1021.2 |
| 20260901235921 | 56 | 282 | 2.0 | 3.0 | 0.00 | 0.10 | 0.00 | 95 | 1021.1 |
| 20260901235321 | 56 | 303 | 2.0 | 3.0 | 0.00 | 0.10 | 0.00 | 95 | 1021.1 |
| 20260901234722 | 56 | 282 | 2.0 | 3.0 | 0.00 | 0.10 | 0.00 | 95 | 1020.9 |
| 20260901234221 | 56 | 310 | 1.0 | 3.0 | 0.00 | 0.10 | 0.00 | 95 | 1021.1 |
| 20260901233721 | 56 | 315 | 2.0 | 3.0 | 0.00 | 0.10 | 0.00 | 95 | 1021.0 |
| 20260901233221 | 56 | 300 | 3.0 | 3.0 | 0.00 | 0.10 | 0.00 | 96 | 1020.8 |
| 20260901232621 | 56 | 273 | 3.0 | 3.0 | 0.00 | 0.10 | 0.00 | 96 | 1020.8 |
| 20260901232021 | 56 | 296 | 2.0 | 3.0 | 0.00 | 0.10 | 0.00 | 95 | 1021.2 |
| 20260901231421 | 57 | 288 | 2.0 | 3.0 | 0.00 | 0.10 | 0.00 | 95 | 1020.9 |
| 20260901230821 | 57 | 295 | 2.0 | 4.0 | 0.00 | 0.10 | 0.00 | 95 | 1020.7 |
| 20260901230221 | 57 | 303 | 2.0 | 3.0 | 0.00 | 0.10 | 0.00 | 94 | 1020.9 |
| 20260901225621 | 57 | 304 | 2.0 | 4.0 | 0.00 | 0.10 | 0.00 | 94 | 1021.0 |
| 20260901225021 | 58 | 290 | 2.0 | 3.0 | 0.00 | 0.10 | 0.00 | 94 | 1021.0 |
| 20260901224521 | 58 | 322 | 1.0 | 3.0 | 0.00 | 0.10 | 0.00 | 94 | 1020.9 |
| 20260901224021 | 58 | 305 | 2.0 | 4.0 | 0.00 | 0.10 | 0.00 | 94 | 1020.7 |
| 20260901223421 | 58 | 277 | 2.0 | 3.0 | 0.00 | 0.10 | 0.00 | 94 | 1020.9 |
| 20260901222921 | 58 | 316 | 2.0 | 4.0 | 0.00 | 0.10 | 0.00 | 94 | 1021.0 |
| 20260901222321 | 58 | 316 | 2.0 | 2.0 | 0.00 | 0.10 | 0.00 | 94 | 1020.8 |
| 20260901221721 | 58 | 326 | 3.0 | 3.0 | 0.00 | 0.10 | 0.00 | 94 | 1020.8 |
| 20260901221121 | 58 | 321 | 3.0 | 4.0 | 0.00 | 0.10 | 0.00 | 95 | 1020.7 |
| 20260901220521 | 58 | 298 | 2.0 | 3.0 | 0.00 | 0.10 | 0.00 | 95 | 1020.7 |
| 20260901220021 | 58 | 287 | 2.0 | 3.0 | 0.00 | 0.10 | 0.00 | 94 | 1020.9 |
| 20260901215521 | 58 | 282 | 3.0 | 4.0 | 0.00 | 0.10 | 0.10 | 94 | 1021.1 |
| 20260901214921 | 59 | 245 | 3.0 | 3.0 | 0.00 | 0.10 | 0.10 | 94 | 1020.7 |
| 20260901214321 | 59 | 320 | 1.0 | 3.0 | 0.00 | 0.10 | 0.10 | 94 | 1020.6 |
| 20260901213821 | 59 | 343 | 2.0 | 3.0 | 0.00 | 0.10 | 0.10 | 94 | 1020.7 |
| 20260901213221 | 59 | 309 | 2.0 | 3.0 | 0.00 | 0.10 | 0.10 | 94 | 1021.0 |
| 20260901212621 | 59 | 285 | 2.0 | 3.0 | 0.00 | 0.10 | 0.10 | 94 | 1020.7 |
| 20260901212021 | 60 | 314 | 1.0 | 3.0 | 0.00 | 0.10 | 0.10 | 94 | 1020.9 |
| 20260901211421 | 60 | 288 | 2.0 | 3.0 | 0.00 | 0.10 | 0.10 | 94 | 1020.7 |
| 20260901210821 | 60 | 280 | 3.0 | 4.0 | 0.00 | 0.10 | 0.10 | 93 | 1020.6 |
| 20260901210221 | 60 | 300 | 2.0 | 3.0 | 0.00 | 0.10 | 0.10 | 93 | 1020.8 |
| 20260901205721 | 60 | 317 | 1.0 | 4.0 | 0.00 | 0.10 | 0.10 | 93 | 1020.9 |
| 20260901205121 | 60 | 331 | 2.0 | 4.0 | 0.00 | 0.10 | 0.10 | 93 | 1020.7 |
| 20260901204521 | 61 | 279 | 3.0 | 4.0 | 0.00 | 0.10 | 0.10 | 93 | 1020.8 |
| 20260901203921 | 60 | 305 | 4.0 | 5.0 | 0.00 | 0.10 | 0.10 | 94 | 1020.7 |
| 20260901203321 | 60 | 253 | 4.0 | 6.0 | 0.00 | 0.10 | 0.10 | 95 | 1020.7 |
| 20260901202721 | 60 | 279 | 2.0 | 3.0 | 0.00 | 0.10 | 0.10 | 96 | 1020.7 |
| 20260901202121 | 60 | 268 | 2.0 | 3.0 | 0.00 | 0.10 | 0.10 | 96 | 1020.7 |
| 20260901201522 | 60 | 273 | 2.0 | 4.0 | 0.00 | 0.10 | 0.10 | 96 | 1020.4 |
| 20260901201021 | 60 | 267 | 2.0 | 3.0 | 0.00 | 0.10 | 0.10 | 96 | 1020.7 |
| 20260901200422 | 60 | 302 | 2.0 | 3.0 | 0.00 | 0.10 | 0.10 | 96 | 1020.7 |
| 20260901195822 | 60 | 306 | 2.0 | 3.0 | 0.00 | 0.10 | 0.10 | 95 | 1020.7 |
| 20260901195221 | 60 | 279 | 2.0 | 2.0 | 0.00 | 0.10 | 0.10 | 95 | 1020.6 |
| 20260901194621 | 61 | 314 | 2.0 | 3.0 | 0.00 | 0.10 | 0.10 | 95 | 1020.5 |
| 20260901194022 | 61 | 291 | 1.0 | 4.0 | 0.00 | 0.10 | 0.10 | 95 | 1020.5 |
| 20260901193520 | 61 | 327 | 2.0 | 3.0 | 0.00 | 0.10 | 0.10 | 95 | 1020.3 |
| 20260901192921 | 61 | 289 | 2.0 | 3.0 | 0.00 | 0.10 | 0.10 | 95 | 1020.5 |
| 20260901192420 | 61 | 283 | 2.0 | 3.0 | 0.00 | 0.10 | 0.10 | 95 | 1020.5 |
| 20260901191821 | 61 | 347 | 2.0 | 4.0 | 0.00 | 0.10 | 0.10 | 95 | 1020.4 |
| 20260901191222 | 61 | 333 | 1.0 | 3.0 | 0.00 | 0.10 | 0.10 | 95 | 1020.4 |
| 20260901190622 | 61 | 330 | 2.0 | 3.0 | 0.00 | 0.10 | 0.10 | 95 | 1020.2 |
| 20260901190021 | 61 | 340 | 3.0 | 3.0 | 0.00 | 0.10 | 0.10 | 95 | 1020.0 |
| 20260901185421 | 61 | 278 | 2.0 | 4.0 | 0.00 | 0.10 | 0.10 | 95 | 1020.3 |
| 20260901184920 | 61 | 323 | 3.0 | 5.0 | 0.00 | 0.10 | 0.10 | 95 | 1020.2 |
| 20260901184321 | 61 | 285 | 2.0 | 6.0 | 0.00 | 0.10 | 0.10 | 95 | 1020.0 |
| 20260901183820 | 61 | 320 | 2.0 | 4.0 | 0.00 | 0.10 | 0.10 | 95 | 1020.1 |
| 20260901183321 | 61 | 47 | 2.0 | 4.0 | 0.00 | 0.10 | 0.10 | 95 | 1020.0 |
| 20260901182820 | 61 | 330 | 2.0 | 5.0 | 0.00 | 0.10 | 0.10 | 95 | 1020.1 |
| 20260901182320 | 61 | 317 | 3.0 | 4.0 | 0.00 | 0.10 | 0.10 | 94 | 1020.1 |
| 20260901181820 | 61 | 303 | 3.0 | 4.0 | 0.01 | 0.10 | 0.10 | 94 | 1019.9 |
| 20260901181320 | 61 | 313 | 2.0 | 3.0 | 0.01 | 0.10 | 0.10 | 94 | 1019.8 |
| 20260901180820 | 61 | 290 | 4.0 | 4.0 | 0.02 | 0.10 | 0.10 | 94 | 1019.7 |
| 20260901180319 | 61 | 350 | 2.0 | 4.0 | 0.02 | 0.10 | 0.10 | 94 | 1019.5 |
| 20260901175720 | 61 | 56 | 0.0 | 3.0 | 0.02 | 0.14 | 0.10 | 93 | 1020.0 |
| 20260901175219 | 61 | 285 | 1.0 | 2.0 | 0.02 | 0.14 | 0.10 | 93 | 1019.6 |
| 20260901174719 | 61 | 313 | 2.0 | 3.0 | 0.02 | 0.14 | 0.10 | 93 | 1019.8 |
| 20260901174220 | 61 | 284 | 2.0 | 3.0 | 0.03 | 0.14 | 0.10 | 92 | 1019.5 |
| 20260901173620 | 62 | 294 | 2.0 | 2.0 | 0.06 | 0.14 | 0.10 | 91 | 1019.6 |
| 20260901173021 | 62 | 288 | 2.0 | 2.0 | 0.07 | 0.14 | 0.10 | 90 | 1019.5 |
| 20260901172420 | 62 | 289 | 5.0 | 7.0 | 0.09 | 0.13 | 0.09 | 90 | 1019.8 |
| 20260901171820 | 62 | 285 | 3.0 | 8.0 | 0.09 | 0.13 | 0.09 | 90 | 1019.5 |
| 20260901171319 | 61 | 285 | 3.0 | 7.0 | 0.08 | 0.12 | 0.08 | 90 | 1019.8 |
| 20260901170819 | 61 | 298 | 5.0 | 6.0 | 0.08 | 0.12 | 0.08 | 90 | 1019.7 |
| 20260901170319 | 61 | 256 | 1.0 | 3.0 | 0.08 | 0.12 | 0.08 | 89 | 1019.5 |
| 20260901165818 | 62 | 311 | 3.0 | 3.0 | 0.08 | 0.17 | 0.08 | 88 | 1019.3 |
| 20260901165219 | 62 | 335 | 0.0 | 4.0 | 0.08 | 0.17 | 0.08 | 86 | 1019.4 |
| 20260901164719 | 62 | 329 | 2.0 | 3.0 | 0.07 | 0.17 | 0.07 | 87 | 1019.6 |
| 20260901164219 | 63 | 357 | 1.0 | 5.0 | 0.05 | 0.15 | 0.05 | 85 | 1019.7 |
| 20260901163719 | 63 | 302 | 4.0 | 12.0 | 0.04 | 0.13 | 0.04 | 83 | 1019.8 |
| 20260901163219 | 65 | 261 | 5.0 | 10.0 | 0.03 | 0.13 | 0.03 | 80 | 1019.5 |
| 20260901162620 | 70 | 246 | 11.0 | 23.0 | 0.00 | 0.10 | 0.00 | 72 | 1019.3 |
| 20260901162020 | 72 | 288 | 6.0 | 8.0 | 0.00 | 0.10 | 0.00 | 56 | 1018.6 |
| 20260901161519 | 73 | 278 | 3.0 | 5.0 | 0.00 | 0.10 | 0.00 | 56 | 1018.6 |
| 20260901160920 | 73 | 263 | 6.0 | 7.0 | 0.00 | 0.10 | 0.00 | 55 | 1018.6 |
| 20260901160419 | 73 | 245 | 3.0 | 8.0 | 0.00 | 0.10 | 0.00 | 55 | 1018.4 |
| 20260901155820 | 73 | 278 | 5.0 | 8.0 | 0.00 | 0.11 | 0.00 | 53 | 1018.6 |
| 20260901155220 | 74 | 293 | 10.0 | 10.0 | 0.00 | 0.11 | 0.00 | 53 | 1018.6 |
| 20260901154719 | 74 | 289 | 4.0 | 5.0 | 0.00 | 0.11 | 0.00 | 52 | 1018.7 |
| 20260901154120 | 75 | 288 | 5.0 | 9.0 | 0.00 | 0.11 | 0.00 | 51 | 1018.2 |
| 20260901153521 | 76 | 256 | 5.0 | 13.0 | 0.00 | 0.11 | 0.00 | 48 | 1018.5 |
| 20260901153020 | 76 | 291 | 6.0 | 8.0 | 0.00 | 0.11 | 0.00 | 48 | 1018.2 |
| 20260901152519 | 75 | 317 | 3.0 | 6.0 | 0.00 | 0.11 | 0.00 | 50 | 1018.5 |
| 20260901152019 | 74 | 235 | 3.0 | 6.0 | 0.00 | 0.11 | 0.00 | 51 | 1018.7 |
| 20260901151519 | 75 | 277 | 4.0 | 7.0 | 0.00 | 0.11 | 0.00 | 50 | 1018.3 |
| 20260901151019 | 75 | 269 | 6.0 | 11.0 | 0.00 | 0.11 | 0.00 | 50 | 1018.4 |
| 20260901150420 | 74 | 299 | 4.0 | 5.0 | 0.00 | 0.11 | 0.00 | 51 | 1018.5 |
| 20260901145821 | 74 | 275 | 4.0 | 8.0 | 0.00 | 0.23 | 0.00 | 51 | 1018.4 |
| 20260901145320 | 74 | 267 | 5.0 | 10.0 | 0.00 | 0.23 | 0.00 | 49 | 1018.3 |
| 20260901144819 | 75 | 287 | 5.0 | 9.0 | 0.00 | 0.23 | 0.00 | 49 | 1018.5 |
| 20260901144220 | 74 | 252 | 5.0 | 9.0 | 0.00 | 0.23 | 0.00 | 51 | 1018.6 |
| 20260901143719 | 74 | 272 | 4.0 | 9.0 | 0.00 | 0.23 | 0.00 | 52 | 1018.6 |
| 20260901143219 | 75 | 242 | 6.0 | 10.0 | 0.00 | 0.23 | 0.00 | 51 | 1018.7 |
| 20260901142622 | 74 | 268 | 2.0 | 11.0 | 0.00 | 0.23 | 0.00 | 51 | 1018.7 |
| 20260901142119 | 75 | 261 | 7.0 | 12.0 | 0.00 | 0.23 | 0.00 | 49 | 1018.5 |
| 20260901141521 | 76 | 228 | 6.0 | 11.0 | 0.00 | 0.23 | 0.00 | 48 | 1018.5 |
| 20260901140921 | 75 | 275 | 5.0 | 10.0 | 0.00 | 0.23 | 0.00 | 50 | 1018.5 |
| 20260901140321 | 75 | 255 | 4.0 | 11.0 | 0.00 | 0.23 | 0.00 | 50 | 1018.8 |
| 20260901135720 | 75 | 273 | 5.0 | 8.0 | 0.00 | 0.23 | 0.00 | 51 | 1018.7 |
| 20260901135219 | 75 | 252 | 9.0 | 11.0 | 0.00 | 0.23 | 0.00 | 49 | 1018.9 |
| 20260901134719 | 76 | 248 | 7.0 | 13.0 | 0.00 | 0.23 | 0.00 | 48 | 1018.8 |
| 20260901134119 | 76 | 276 | 8.0 | 13.0 | 0.00 | 0.23 | 0.00 | 48 | 1018.6 |
| 20260901133519 | 76 | 254 | 8.0 | 11.0 | 0.00 | 0.23 | 0.00 | 48 | 1018.7 |
| 20260901132920 | 76 | 238 | 6.0 | 10.0 | 0.00 | 0.23 | 0.00 | 48 | 1018.6 |
| 20260901132418 | 77 | 272 | 4.0 | 13.0 | 0.00 | 0.23 | 0.00 | 49 | 1018.7 |
| 20260901131918 | 76 | 262 | 7.0 | 12.0 | 0.00 | 0.23 | 0.00 | 49 | 1018.6 |
| 20260901131319 | 76 | 286 | 5.0 | 13.0 | 0.00 | 0.23 | 0.00 | 49 | 1018.7 |
| 20260901130818 | 75 | 272 | 5.0 | 15.0 | 0.00 | 0.23 | 0.00 | 53 | 1018.7 |
| 20260901130220 | 75 | 283 | 6.0 | 15.0 | 0.00 | 0.23 | 0.00 | 52 | 1018.6 |
| 20260901125719 | 76 | 251 | 4.0 | 9.0 | 0.00 | 0.23 | 0.00 | 52 | 1018.6 |
| 20260901125120 | 75 | 244 | 5.0 | 13.0 | 0.00 | 0.23 | 0.00 | 51 | 1018.6 |
| 20260901124619 | 75 | 253 | 4.0 | 11.0 | 0.00 | 0.23 | 0.00 | 53 | 1018.7 |
| 20260901124120 | 75 | 234 | 11.0 | 17.0 | 0.00 | 0.23 | 0.00 | 52 | 1018.8 |
| 20260901123520 | 75 | 254 | 9.0 | 17.0 | 0.00 | 0.23 | 0.00 | 52 | 1018.7 |